Regional Weather Roundup
Issued by NWS

Home | Current Version | Previous Version | Text Only | Print | Product List | Glossary Off
Versions: 1 2 3 4 5 6 7 8 9 10 11 12 13 14 15 16 17 18 19 20 21 22 23 24 25 26 27 28 29 30 31 32 33 34 35 36 37 38 39 40 41 42 43 44 45 46 47 48 49 50

000
ASUS43 KBIS 231410
RWRND

NORTH DAKOTA REGIONAL WEATHER ROUNDUP
NATIONAL WEATHER SERVICE BISMARCK ND
900 AM CDT THU MAR 23 2017

NOTE: "FAIR" INDICATES FEW OR NO CLOUDS BELOW 12,000 FEET WITH NO
SIGNIFICANT WEATHER AND/OR OBSTRUCTIONS TO VISIBILITY.


NDZ001>003-009>011-017-231500-
NORTHWEST NORTH DAKOTA

CITY           SKY/WX    TMP DP  RH WIND       PRES   REMARKS
WILLISTON      FAIR      34  32  92 CALM      29.74S FOG
MINOT          FAIR      36  30  79 S6        29.73F
MINOT AFB      CLOUDY    33  30  90 S5        29.72F
$$

NDZ018>021-031>035-040>046-231500-
SOUTHWEST NORTH DAKOTA

CITY           SKY/WX    TMP DP  RH WIND       PRES   REMARKS
BISMARCK       LGT RAIN  34  32  92 N8        29.73F
DICKINSON      CLOUDY    38  33  82 W3        29.70R
GARRISON         N/A     33  29  85 CALM      29.73F
HETTINGER ARPT CLOUDY    39  37  92 E6        29.71S
$$

NDZ004>008-012>016-024-026-027-054-231500-
NORTHEAST NORTH DAKOTA

CITY           SKY/WX    TMP DP  RH WIND       PRES   REMARKS
GRAND FORKS    CLOUDY    35  23  61 S14       29.86F
GRND FRKS AFB  PTSUNNY   34  26  73 S12       29.86S
DEVILS LAKE    PTSUNNY   32  27  81 S5        29.80F
$$

NDZ022-023-025-028>030-036>039-047>053-231500-
SOUTHEAST NORTH DAKOTA

CITY           SKY/WX    TMP DP  RH WIND       PRES   REMARKS
FARGO          CLOUDY    38  26  62 S23G32    29.88F
JAMESTOWN      LGT RAIN  33  30  88 S9        29.81R FOG
$$




USA.gov is the U.S. government's official web portal to all federal, state and local government web resources and services.